Regional Weather Roundup
Issued by NWS Green Bay, WI

Home | Current Version | Previous Version | Text Only | Print | Product List | Glossary On
Versions: 1 2 3 4 5 6 7 8 9 10 11 12 13 14 15 16 17 18 19 20 21 22 23 24 25 26 27 28 29 30 31 32 33 34 35 36 37 38 39 40 41 42 43 44 45 46 47 48 49 50
000
ASUS43 KGRB 310611
RWRGRB

NORTH-CENTRAL AND NORTHEAST WISCONSIN REGIONAL WEATHER ROUNDUP
NATIONAL WEATHER SERVICE GREEN BAY WI
100 AM CDT FRI JUL 31 2015

WIZ005-009-010>012-018-019-310700-
NORTH CENTRAL WISCONSIN

CITY           SKY/WX    TMP DP  RH WIND       PRES   REMARKS
IRONWOOD       CLEAR     63  55  77 W8        29.88S
MANITOWISH WTR CLEAR     61  56  84 W3        29.93F
ARBOR VITAE    CLEAR     64  56  74 W5        29.94F
EAGLE RIVER    CLEAR     57  56  97 W6        29.93F
LAND O LAKES   CLEAR     60  55  85 W3        29.93F
RHINELANDER    CLEAR     58  54  86 W8        29.96S
PHILLIPS       CLEAR     62  56  81 CALM      29.96S
ANTIGO         CLEAR     60  57  89 W6        29.97S
TOMAHAWK       CLEAR     55  54  95 CALM      29.97S
MERRILL        NOT AVBL
$$

WIZ013-073-310700-
NORTHEAST WISCONSIN

CITY           SKY/WX    TMP DP  RH WIND       PRES   REMARKS
IRON MOUNTAIN  CLEAR     65  58  78 W8        29.88F
MARINETTE      CLEAR     64  55  72 W5        29.89F
OCONTO         CLEAR     65  60  83 W7        29.91S
$$

WIZ017-030-035>037-045-310700-
CENTRAL WISCONSIN

CITY           SKY/WX    TMP DP  RH WIND       PRES   REMARKS
MEDFORD        CLEAR     64  57  76 W8        29.99S
WAUSAU         PTCLDY    70  56  61 W12       29.96S
MOSINEE        CLEAR     64  57  77 W8        29.99S
MARSHFIELD     CLEAR     66  56  70 W8        29.99F
WISC RAPIDS    CLEAR     67  57  70 W6        30.00F
STEVENS POINT  CLEAR     67  56  68 W7        29.98F
WAUPACA        CLEAR     70  58  66 W7        29.97F
SHAWANO        CLEAR     69  58  69 W6        29.94F HAZE
CLINTONVILLE   CLEAR     66  55  68 W5        29.95S
$$

WIZ038-039-048-051-310700-
FOX VALLEY

CITY           SKY/WX    TMP DP  RH WIND       PRES   REMARKS
NWS GREEN BAY  CLEAR     66  58  75 W8        29.94F
APPLETON       CLEAR     64  54  68 W7        29.97S
OSHKOSH        CLEAR     69  56  62 W5        29.97S
FOND DU LAC    CLEAR     68  57  68 SW7       29.98F
$$

WIZ022-050-052-310700-
EAST CENTRAL WISCONSIN

CITY           SKY/WX    TMP DP  RH WIND       PRES   REMARKS
STURGEON BAY   CLEAR     66  57  72 SW8       29.94S
MANITOWOC      CLEAR     69  58  67 MISG      29.95F
SHEBOYGAN      CLEAR     64  56  75 MISG      29.97F
$$

LMZ563-521-522-541>543-310700-
LAKESHORE

STATION/POSITION TIME  TEMP    WIND        PRES    VSBY  WAVE
                       AIR SEA DIR/SP/G                  HT/PER
                 (UTC) (F)     (DEG/KT/KT) (MB)    (MI)  (FT/S)
SHEBOYGAN LKSHOR 0600   71     250/  9/ 11 1014.6F
KEWAUNEE LKSHORE 0500   67     300/  3/  4 1013.1F
ALGOMA MARINA    0512          240/  4/  7   N/A
NORTHPORT PIER   0500   71     220/  5/  9 1011.9F
N MID LAKE BUOY  0550   70 69  240/ 12/ 16 1010.8F         1/ 3
S GREEN BAY BUOY 0600   69 72  240/ 12/ 16 1014.3F
SISTER BAY LKSHO 0514   72     280/ 12/ 14   N/A
CHAMBERS ISLAND  0500   69     210/  5/  9 1012.2F
MENOMINEE LKSHOR 0500   69     240/ 10/ 13 1013.4F
$$



USA.gov is the U.S. government's official web portal to all federal, state and local government web resources and services.